User: anonymous   Login
Location: Unspecified
(90.0000°S, 0.0000°E)
Time: 18:11:54
(UTC+00:00)
Language:

UKube-1 - Orbit

View from above orbital plane
View from above orbital plane
View from above satellite
View from above satellite

Ground track
Ground track

The orbit data is extracted from the following two-line orbital elements,

1 40074U 14037F   19236.17664999  .00000120  00000-0  21583-4 0  9998
2 40074  98.4440  41.9341 0005364  19.8839 340.2588 14.84081378277510
Epoch (UTC): 24 August 2019 04:14:22
Eccentricity: 0.0005364
inclination: 98.4440°
perigee height: 613 km
apogee height: 620 km
right ascension of ascending node: 41.9341°
argument of perigee: 19.8839°
revolutions per day: 14.84081378
mean anomaly at epoch: 340.2588°
orbit number at epoch: 27751

The dashed part of the orbit path shows where the satellite is in the earth's shadow,  

DLR